Location: Reutlingen
(48.4911°N, 9.2587°E)
Time: 20:06:30
(UTC+01:00)

Envisat - Visible Passes

Search period start: 20 November 2017 00:00
Search period end: 30 November 2017 00:00
Orbit: 764 x 766 km, 98.2° (Epoch: 20 November)

Date Brightness Start Highest point End Pass type
(mag) Time Alt. Az. Time Alt. Az. Time Alt. Az.
20 Nov 5.0 19:12:49 15° N 19:12:49 15° N 19:13:51 10° N visible
21 Nov 5.0 18:35:46 13° NNE 18:35:46 13° NNE 18:36:26 10° NNE visible
21 Nov 5.5 20:15:58 13° NNW 20:15:58 13° NNW 20:16:29 10° NNW visible
22 Nov 5.2 19:38:55 15° N 19:38:55 15° N 19:39:42 10° N visible
23 Nov 5.1 19:01:51 14° N 19:01:51 14° N 19:02:35 10° N visible
24 Nov 5.1 18:24:47 11° NNE 18:24:47 11° NNE 18:24:58 10° NNE visible
24 Nov 5.5 20:04:59 12° NNW 20:04:59 12° NNW 20:05:23 10° NNW visible
25 Nov 5.2 19:27:54 13° N 19:27:54 13° N 19:28:30 10° N visible
26 Nov 5.2 18:50:50 12° NNE 18:50:50 12° NNE 18:51:16 10° N visible
27 Nov 5.5 19:53:58 12° N 19:53:58 12° N 19:54:15 10° N visible
28 Nov 5.3 19:16:53 12° N 19:16:53 12° N 19:17:16 10° N visible
29 Nov 5.2 18:39:47 10° NNE 18:39:47 10° NNE 18:39:55 10° NNE visible
